Home > Weather > Mexicali > Past weeks

Flag for Mexico Past Weather in Mexicali, Baja California, Mexico — Yesterday and Last 2 Weeks

Now
114 °F

Sunny.


Feels Like: 119 °F
Forecast: 86 / 113 °F
Wind: 10 mph from Southeast

Location: Imperial County Airport

Current Time: Jul 27, 2016 at 4:09:45 PM

Latest Report: Jul 27, 2016 at 2:53 PM


Visibility: 10 mi

Pressure: 29.69 "Hg

Humidity: 20%

Dew Point: 64 °F

Location of MexicaliLocation

Past Weather in Mexicali — Graph

°F

Mexicali Temperature Yesterday

Maximum temperature yesterday: 111 °F (at 2:53 PM)
Minimum temperature yesterday: 89 °F (at 3:53 AM)
Average temperature yesterday: 101 °F

High & Low Weather Summary for the Past Weeks

 TemperatureHumidityPressure
High116 °F (Jul 21, 2:53 PM)72% (Jul 24, 4:53 AM)29.91 "Hg (Jul 24, 4:53 AM)
Low79 °F (Jul 13, 5:53 AM)4% (Jul 12, 2:53 PM)29.62 "Hg (Jul 23, 7:02 PM)
Average98 °F31%29.77 "Hg
* Reported Jul 12 2:53 PM — Jul 27 2:53 PM, Mexicali, Weather by CustomWeather, © 2016

Note: Actual official high and low records may vary slightly from our data, if they occured in-between our weather recording intervals... More about our weather records

Advertising

Mexicali Weather History for the Previous 24 Hours

Scroll right to see more
 ConditionsComfort  
Time TempWeatherWind HumidityBarometerVisibility
2:53 PM
Wed, Jul 27
114 °FSunny.10 mph20%29.69 "Hg10 mi
1:53 PM113 °FSunny.8 mph22%29.72 "Hg10 mi
12:53 PM112 °FSunny.10 mph22%29.75 "Hg10 mi
11:53 AM108 °FSunny.3 mph23%29.77 "Hg10 mi
10:53 AM105 °FSunny.5 mph26%29.78 "Hg10 mi
9:53 AM101 °FSunny.No wind37%29.79 "Hg10 mi
8:53 AM95 °FSunny.8 mph51%29.78 "Hg10 mi
7:53 AM91 °FSunny.3 mph57%29.78 "Hg10 mi
6:53 AM88 °FSunny.6 mph61%29.76 "Hg10 mi
5:53 AM87 °FClear.5 mph61%29.74 "Hg10 mi
4:53 AM88 °FClear.9 mph61%29.72 "Hg10 mi
3:53 AM89 °FClear.6 mph55%29.72 "Hg10 mi
2:53 AM90 °FClear.9 mph50%29.71 "Hg10 mi
1:53 AM94 °FClear.3 mph36%29.70 "Hg10 mi
12:53 AM95 °FClear.No wind30%29.70 "Hg10 mi
11:53 PM
Tue, Jul 26
94 °FClear.7 mph33%29.70 "Hg10 mi
10:53 PM99 °FClear.8 mph27%29.71 "Hg10 mi
9:53 PM102 °FClear.8 mph28%29.70 "Hg10 mi
8:53 PM104 °FClear.10 mph25%29.68 "Hg10 mi
7:53 PM107 °FSunny.10 mph24%29.65 "Hg10 mi
6:53 PM111 °FSunny.8 mph21%29.65 "Hg10 mi
5:53 PM111 °FSunny.7 mph21%29.65 "Hg10 mi
4:53 PM111 °FSunny.No wind21%29.66 "Hg10 mi
Weather by CustomWeather, © 2016

See weather overviewHow to use our weather pages